(231848) = 2000 SR31

Discovered at Socorro on 2000-09-24 by LINEAR.

Orbit

Orbit type: Main Belt

Note: WebGL enabled browser required.

epoch2023-02-25.0
epoch JD2460000.5
perihelion date2021-06-09.51005
perihelion JD2459375.01005
argument of perihelion (°)74.37076
ascending node (°)343.98490
inclination (°)4.25650
eccentricity0.2725248
perihelion distance (AU)1.8529737
Tisserand w.r.t. Jupiter3.4
ΔV w.r.t. Earth (km/sec)8.7
semimajor axis (AU)2.5471299
mean anomaly (°)151.65179
mean daily motion (°/day)0.24245280
aphelion distance (AU)3.241
period (years)4.07
P-vector [x]0.52391217
P-vector [y]0.75029730
P-vector [z]0.40319971
Q-vector [x]-0.85152612
Q-vector [y]0.47274304
Q-vector [z]0.22675381
absolute magnitude17.4
phase slope0.15
uncertainty0
referenceMPO 745323
observations used257
oppositions13
arc length (days)8268
first opposition used2000
last opposition used2023
residual rms (arc-secs)0.78
perturbers coarse indicatorM-v
perturbers precise indicator003Ek
first observation date used2000-09-21.0
last observation date used2023-05-12.0
computer nameMPCLINUX
JD of orbit computation2456760.884547
perihelion JD uncertainty (days)2.7550E-04
argument of perihelion uncertainty (°)8.5330E-05
ascending node uncertainty (°)5.3470E-05
inclination uncertainty (°)1.7013E-05
eccentricity uncertainty 9.2478E-08
perihelion distance uncertainty (AU)2.4515E-07
Minimum Orbit Intersection Distances (in AU)
for orbit epoch: 2460000.5, reference: E2023-JC8
Mercury1.54219
Venus1.13589
Earth0.86918
Mars0.34895
Jupiter2.14408
Saturn6.71641
Uranus15.5292
Neptune27.3839

Observations

264 total observations over interval: 2000 09 21.34649 – 2023 05 12.345901
These data are available for download (format description).

Date (UT) J2000 RA J2000 Dec Magn Location Ref
2000 09 21.34649 23 50 37.01 +01 06 43.4 19.0 R 699 – Lowell Observatory-LONEOS MPS 30125
2000 09 21.36624 23 50 35.79 +01 06 39.4   699 – Lowell Observatory-LONEOS MPS 30125
2000 09 21.38606 23 50 34.56 +01 06 38.1   699 – Lowell Observatory-LONEOS MPS 30125
2000 09 21.40586 23 50 33.44 +01 06 32.2   699 – Lowell Observatory-LONEOS MPS 30125
2000 09 24.26510 23 47 49.87 +00 58 28.0 19.1   704 – Lincoln Laboratory ETS, New Mexico MPS 19787
2000 09 24.27999 23 47 49.08 +00 58 24.6 19.1   704 – Lincoln Laboratory ETS, New Mexico MPS 19787
2000 09 24.29489 23 47 48.16 +00 58 22.3 19.4   704 – Lincoln Laboratory ETS, New Mexico MPS 19787
2000 09 24.30979 23 47 47.27 +00 58 20.6 19.4   704 – Lincoln Laboratory ETS, New Mexico MPS 19787
2000 09 24.32489 23 47 46.30 +00 58 18.5 19.8   704 – Lincoln Laboratory ETS, New Mexico MPS 19787
2000 09 25.18446 23 46 57.48 +00 55 49.8 18.8   704 – Lincoln Laboratory ETS, New Mexico MPS 19787
2000 09 25.18459 23 46 57.50 +00 55 50.3 18.6   704 – Lincoln Laboratory ETS, New Mexico MPS 19787
2000 09 25.19914 23 46 56.57 +00 55 47.7 19.5   704 – Lincoln Laboratory ETS, New Mexico MPS 19787
2000 09 25.19927 23 46 56.61 +00 55 47.1 19.8   704 – Lincoln Laboratory ETS, New Mexico MPS 19787
2000 09 25.21381 23 46 55.74 +00 55 43.3 19.1   704 – Lincoln Laboratory ETS, New Mexico MPS 19787
2000 09 25.21393 23 46 55.75 +00 55 44.5 19.3   704 – Lincoln Laboratory ETS, New Mexico MPS 19787
2000 09 25.22852 23 46 54.83 +00 55 42.2 19.3   704 – Lincoln Laboratory ETS, New Mexico MPS 19787
2000 09 25.22865 23 46 54.89 +00 55 42.6 19.4   704 – Lincoln Laboratory ETS, New Mexico MPS 19787
2000 09 25.24332 23 46 53.96 +00 55 39.9 19.7   704 – Lincoln Laboratory ETS, New Mexico MPS 19787
2000 09 26.25909 23 45 55.95 +00 52 45.1 18.8   704 – Lincoln Laboratory ETS, New Mexico MPS 19787
2000 09 26.29027 23 45 54.04 +00 52 38.8 19.7   704 – Lincoln Laboratory ETS, New Mexico MPS 19787
2000 09 26.30622 23 45 53.08 +00 52 36.1 19.5   704 – Lincoln Laboratory ETS, New Mexico MPS 19787
2000 10 01.17020 23 41 21.54 +00 38 47.6 19.2   704 – Lincoln Laboratory ETS, New Mexico MPS 19787
2000 10 01.18548 23 41 20.67 +00 38 44.6 19.3   704 – Lincoln Laboratory ETS, New Mexico MPS 19787
2000 10 01.20056 23 41 19.81 +00 38 42.9 19.3   704 – Lincoln Laboratory ETS, New Mexico MPS 19787
2000 10 01.21348 23 41 19.01 +00 38 40.6 19.0 R 699 – Lowell Observatory-LONEOS MPS 21161
2000 10 01.21563 23 41 18.92 +00 38 39.1 19.7   704 – Lincoln Laboratory ETS, New Mexico MPS 19787
2000 10 01.23071 23 41 18.06 +00 38 37.7 19.4   704 – Lincoln Laboratory ETS, New Mexico MPS 19787
2000 10 01.23277 23 41 17.94 +00 38 38.1   699 – Lowell Observatory-LONEOS MPS 21161
2000 10 01.25211 23 41 16.81 +00 38 34.2   699 – Lowell Observatory-LONEOS MPS 21161
2000 10 01.27145 23 41 15.76 +00 38 30.6   699 – Lowell Observatory-LONEOS MPS 21161
2000 10 02.29543 23 40 20.38 +00 35 41.4 19.2   704 – Lincoln Laboratory ETS, New Mexico MPS 19787
2000 10 02.31101 23 40 19.61 +00 35 39.0 19.7   704 – Lincoln Laboratory ETS, New Mexico MPS 19787
2000 10 02.32716 23 40 18.60 +00 35 36.2 19.8   704 – Lincoln Laboratory ETS, New Mexico MPS 19787
2000 10 02.338990 23 40 17.934 +00 35 34.14 19.52 V 645 – Apache Point-Sloan Digital Sky Survey MPS 79756
2000 10 02.342462 23 40 17.742 +00 35 33.54 20.35   645 – Apache Point-Sloan Digital Sky Survey MPS 79756
2000 10 02.34267 23 40 17.71 +00 35 33.4 19.4   704 – Lincoln Laboratory ETS, New Mexico MPS 19787
2000 10 02.35829 23 40 16.79 +00 35 30.6 20.0   704 – Lincoln Laboratory ETS, New Mexico MPS 19787
2000 10 27.09858 23 25 34.77 -00 00 06.3 20.4 V 691 – Steward Observatory, Kitt Peak-Spacewatch MPS 21161
2000 10 27.11971 23 25 34.43 -00 00 05.7 20.3 V 691 – Steward Observatory, Kitt Peak-Spacewatch MPS 21161
2000 10 27.14082 23 25 34.11 -00 00 05.3 21.1 V 691 – Steward Observatory, Kitt Peak-Spacewatch MPS 21161
2004 09 07.34913 23 14 42.68 -04 37 25.8 19.7 V 691 – Steward Observatory, Kitt Peak-Spacewatch MPS 112566
2004 09 07.37772 23 14 40.96 -04 37 30.8 19.7 V 691 – Steward Observatory, Kitt Peak-Spacewatch MPS 112566
2004 09 07.40565 23 14 39.28 -04 37 36.0 19.5 V 691 – Steward Observatory, Kitt Peak-Spacewatch MPS 112566
2004 09 08.24059 23 13 51.58 -04 40 10.5 20.0   704 – Lincoln Laboratory ETS, New Mexico MPS 112566
2004 09 08.25204 23 13 50.85 -04 40 11.9 20.0   704 – Lincoln Laboratory ETS, New Mexico MPS 112566
2004 09 08.26353 23 13 50.26 -04 40 13.9 19.9   704 – Lincoln Laboratory ETS, New Mexico MPS 112566
2004 09 08.27494 23 13 49.40 -04 40 15.5 19.6   704 – Lincoln Laboratory ETS, New Mexico MPS 112566
2004 09 09.19345 23 12 56.62 -04 43 09.4 19.9   704 – Lincoln Laboratory ETS, New Mexico MPS 112566
2004 09 09.20461 23 12 55.94 -04 43 10.3 20.1   704 – Lincoln Laboratory ETS, New Mexico MPS 112566
2004 09 09.22776 23 12 54.47 -04 43 12.0 20.3   704 – Lincoln Laboratory ETS, New Mexico MPS 112566
2004 09 11.32035 23 10 52.11 -04 49 48.9 19.7 V 691 – Steward Observatory, Kitt Peak-Spacewatch MPS 112621
2004 09 11.34884 23 10 50.35 -04 49 54.2 19.8 V 691 – Steward Observatory, Kitt Peak-Spacewatch MPS 112621
2004 09 11.37990 23 10 48.46 -04 50 00.0 19.7 V 691 – Steward Observatory, Kitt Peak-Spacewatch MPS 112621
2004 09 13.28395 23 08 57.00 -04 56 00.6 19.1 R 699 – Lowell Observatory-LONEOS MPS 120360
2004 09 13.30337 23 08 55.83 -04 56 03.0   699 – Lowell Observatory-LONEOS MPS 120360
2004 09 13.32281 23 08 54.57 -04 56 06.3   699 – Lowell Observatory-LONEOS MPS 120360
2004 09 13.34225 23 08 53.17 -04 56 08.7   699 – Lowell Observatory-LONEOS MPS 120360
2004 09 20.07367 23 02 24.83 -05 16 35.7 19.0   H55 – Astronomical Research Observatory, Charleston MPS 114152
2004 09 20.09337 23 02 23.65 -05 16 37.0 19.2   H55 – Astronomical Research Observatory, Charleston MPS 114152
2004 09 20.10716 23 02 22.84 -05 16 41.2 19.3   H55 – Astronomical Research Observatory, Charleston MPS 114152
2004 10 08.11238 22 48 33.35 -05 52 06.8 19.9 V 691 – Steward Observatory, Kitt Peak-Spacewatch MPS 115605
2004 10 08.12945 22 48 32.76 -05 52 07.7 20.0 V 691 – Steward Observatory, Kitt Peak-Spacewatch MPS 115605
2004 10 08.14642 22 48 32.17 -05 52 08.5 20.1 V 691 – Steward Observatory, Kitt Peak-Spacewatch MPS 115605
2006 02 25.34328 12 16 31.58 -03 00 43.2 21.9 V 691 – Steward Observatory, Kitt Peak-Spacewatch MPS 164940
2006 02 25.36059 12 16 30.70 -03 00 40.0 21.3 V 691 – Steward Observatory, Kitt Peak-Spacewatch MPS 164940
2006 02 25.37791 12 16 29.92 -03 00 35.7 21.9 V 691 – Steward Observatory, Kitt Peak-Spacewatch MPS 164940
2006 03 04.33242 12 10 49.09 -02 35 46.9   691 – Steward Observatory, Kitt Peak-Spacewatch MPS 165916
2006 03 04.34981 12 10 48.16 -02 35 41.8   691 – Steward Observatory, Kitt Peak-Spacewatch MPS 165916
2006 03 04.36720 12 10 47.21 -02 35 38.4   691 – Steward Observatory, Kitt Peak-Spacewatch MPS 165916
2006 04 02.28902 11 44 02.47 -00 23 15.9 21.1 V G96 – Mt. Lemmon Survey MPS 168189
2006 04 02.29520 11 44 02.14 -00 23 14.5 20.8 V G96 – Mt. Lemmon Survey MPS 168189
2006 04 02.30103 11 44 01.82 -00 23 12.7 20.9 V G96 – Mt. Lemmon Survey MPS 168189
2006 04 02.30677 11 44 01.57 -00 23 11.4 21.0 V G96 – Mt. Lemmon Survey MPS 168189
2008 07 30.36517 22 56 22.91 -08 55 30.8   691 – Steward Observatory, Kitt Peak-Spacewatch MPS 252883
2008 07 30.38275 22 56 22.44 -08 55 31.3   691 – Steward Observatory, Kitt Peak-Spacewatch MPS 252883
2008 07 30.40035 22 56 22.04 -08 55 32.8   691 – Steward Observatory, Kitt Peak-Spacewatch MPS 252883
2008 08 20.39544 22 42 24.49 -09 43 09.1 20.5 V 691 – Steward Observatory, Kitt Peak-Spacewatch MPS 254386
2008 08 20.41303 22 42 23.52 -09 43 12.5 20.3 V 691 – Steward Observatory, Kitt Peak-Spacewatch MPS 254386
2008 08 20.43062 22 42 22.52 -09 43 15.7 20.4 V 691 – Steward Observatory, Kitt Peak-Spacewatch MPS 254386
2008 09 20.21162 22 13 26.40 -11 12 53.2 20.2 V G96 – Mt. Lemmon Survey MPS 256513
2008 09 20.22046 22 13 25.93 -11 12 53.7 20.0 V G96 – Mt. Lemmon Survey MPS 256513
2008 09 20.22942 22 13 25.50 -11 12 54.6 19.9 V G96 – Mt. Lemmon Survey MPS 256513
2008 09 20.23840 22 13 25.06 -11 12 55.9 20.1 V G96 – Mt. Lemmon Survey MPS 256513
